Regional Weather Roundup
Issued by NWS Cleveland, OH

Home | Current Version | Previous Version | Graphics & Text | Print | Product List | Glossary On
Versions: 1 2 3 4 5 6 7 8 9 10 11 12 13 14 15 16 17 18 19 20 21 22 23 24 25 26 27 28 29 30 31 32 33 34 35 36 37 38 39 40 41 42 43 44 45 46 47 48 49 50
000
ASUS41 KCLE 261800
RWRCLE
OHIO REGIONAL WEATHER ROUNDUP
NATIONAL WEATHER SERVICE WILMINGTON, OH
200 PM EDT WED JUL 26 2017

NOTE: "FAIR" INDICATES FEW OR NO CLOUDS BELOW 12,000 FEET WITH NO
SIGNIFICANT WEATHER AND/OR OBSTRUCTIONS TO VISIBILITY.

OHZ001>008-015>018-024>027-034-035-043-044-261900-
   NORTHWEST OHIO

CITY           SKY/WX    TMP DP  RH WIND       PRES   REMARKS
DEFIANCE       FAIR     N/A N/A N/A S7        30.11F
FINDLAY        FAIR      78  61  55 SE8       30.12F
TOLEDO EXPRESS FAIR      78  62  57 MISG      30.10F
TOLEDO EXEC    FAIR      79  63  57 S9        30.11F
LIMA           FAIR      77  63  61 SE7       30.13F
$$

OHZ009>014-019>023-028>033-038-089-261900-
   NORTHEAST OHIO

CITY           SKY/WX    TMP DP  RH WIND       PRES   REMARKS
CLE-HOPKINS    PTSUNNY   81  61  50 VRB6      30.13F
CLE-LAKEFRONT  FAIR      75  62  64 N7        30.12F
CUY CO. ARPT   CLOUDY    79  64  61 NW7       30.14F
LORAIN-ELYRIA  FAIR      77  58  51 S6        30.13F
ASHTABULA      FAIR      77  60  55 S9        30.14F
AKRON-CANTON   PTSUNNY   79  59  50 VRB3      30.15F
WOOSTER        NOT AVBL
MANSFIELD      FAIR      78  61  55 VRB6      30.14F
YOUNGSTOWN     CLOUDY    77  60  55 SE3       30.14F
$$

OHZ042-051>053-060>062-070>072-077>081-261900-
  SOUTHWEST OHIO

CITY           SKY/WX    TMP DP  RH WIND       PRES   REMARKS
CINC-COVINGTON FAIR      83  66  56 CALM      30.12F
CINC-LUNKEN    FAIR      83  68  60 S5        30.12F
HAMILTON       FAIR      82  64  54 CALM      30.12F
DAYTON         NOT AVBL
WRIGHT-PAT AFB NOT AVBL
DAYTON GENERAL FAIR      79  60  52 CALM      30.12F
WILMINGTON     FAIR      77  65  66 SE6       30.14F
$$

OHZ036-037-039>041-045>050-054>059-063>069-073>076-082>088-261900-
  CENTRAL AND SOUTHEAST OHIO

CITY           SKY/WX    TMP DP  RH WIND       PRES   REMARKS
COLUMBUS       FAIR      78  62  57 VRB3      30.13F
OSU AIRPORT    FAIR      79  62  56 MISG      30.13F
BOLTON FIELD   SUNNY     75  63  64 S6        30.15F
RICKENBACK AFB NOT AVBL
NEWARK         FAIR      77  61  57 E3        30.13F
MARION         FAIR      76  61  59 SE7       30.14F
LANCASTER      FAIR      78  64  61 N3        30.15F
ZANESVILLE     FAIR      77  61  57 SE6       30.14F
NEW PHILLY     FAIR      78  62  57 CALM      30.15F
$$




USA.gov is the U.S. government's official web portal to all federal, state and local government web resources and services.